Time,TemperatureF,DewpointF,PressureIn,WindDirection,WindDirectionDegrees,WindSpeedMPH,WindSpeedGustMPH,Humidity,HourlyPrecipIn,Conditions,Clouds,dailyrainin,SolarRadiationWatts/m^2,SoftwareType,DateUTC
2013-07-02 00:01:00,71.2,68.4,30.02,South,182,0.0,1.0,91,0.00,RA,,0.00,0.0,WeatherDisplay:10.37,2013-07-02 04:01:00,
2013-07-02 00:06:00,71.1,68.3,30.02,South,182,0.0,0.0,91,0.00,RA,,0.00,0.0,WeatherDisplay:10.37,2013-07-02 04:06:00,
2013-07-02 00:11:00,71.0,68.2,30.02,South,182,0.0,0.0,91,0.00,CLR,,0.00,0.0,WeatherDisplay:10.37,2013-07-02 04:11:00,
2013-07-02 00:16:00,71.0,68.2,30.02,South,182,0.0,0.0,91,0.00,CLR,,0.00,0.0,WeatherDisplay:10.37,2013-07-02 04:16:00,
2013-07-02 00:21:00,70.9,68.5,30.02,South,182,0.0,0.0,92,0.00,CLR,,0.00,0.0,WeatherDisplay:10.37,2013-07-02 04:21:00,
2013-07-02 00:26:00,70.8,68.4,30.02,South,182,0.6,1.0,92,0.00,CLR,,0.00,0.0,WeatherDisplay:10.37,2013-07-02 04:26:00,
2013-07-02 00:31:00,70.8,68.4,30.02,South,182,1.2,1.2,92,0.00,CLR,,0.00,0.0,WeatherDisplay:10.37,2013-07-02 04:31:00,
2013-07-02 00:36:00,70.9,68.5,30.02,South,182,0.0,1.2,92,0.00,CLR,,0.00,0.0,WeatherDisplay:10.37,2013-07-02 04:36:00,
2013-07-02 00:41:00,70.9,68.5,30.02,South,182,0.1,1.2,92,0.00,CLR,,0.00,0.0,WeatherDisplay:10.37,2013-07-02 04:41:00,
2013-07-02 00:46:00,70.9,68.5,30.02,South,182,0.0,1.0,92,0.00,CLR,,0.00,0.0,WeatherDisplay:10.37,2013-07-02 04:46:00,
2013-07-02 00:51:00,70.9,68.5,30.02,South,184,0.9,3.5,92,0.00,CLR,,0.00,0.0,WeatherDisplay:10.37,2013-07-02 04:51:00,
2013-07-02 00:56:00,70.9,68.5,30.02,South,184,0.0,1.2,92,0.00,CLR,,0.00,0.0,WeatherDisplay:10.37,2013-07-02 04:56:00,
2013-07-02 01:01:00,71.0,68.6,30.02,South,184,0.5,2.3,92,0.00,CLR,,0.00,0.0,WeatherDisplay:10.37,2013-07-02 05:01:00,
2013-07-02 01:06:00,71.0,68.6,30.02,South,184,0.0,1.2,92,0.00,CLR,,0.00,0.0,WeatherDisplay:10.37,2013-07-02 05:06:00,
2013-07-02 01:11:00,71.0,68.6,30.03,South,173,0.1,1.2,92,0.00,CLR,,0.00,0.0,WeatherDisplay:10.37,2013-07-02 05:11:00,
2013-07-02 01:16:00,71.0,68.6,30.03,South,173,0.0,0.0,92,0.00,CLR,,0.00,0.0,WeatherDisplay:10.37,2013-07-02 05:16:00,
2013-07-02 01:21:00,71.0,68.6,30.03,South,173,0.0,0.0,92,0.00,CLR,,0.00,0.0,WeatherDisplay:10.37,2013-07-02 05:21:00,
2013-07-02 01:26:00,71.1,68.7,30.03,South,175,2.2,3.5,92,0.00,CLR,,0.00,0.0,WeatherDisplay:10.37,2013-07-02 05:26:00,
2013-07-02 01:31:00,71.1,68.7,30.03,South,175,0.0,0.0,92,0.00,CLR,,0.00,0.0,WeatherDisplay:10.37,2013-07-02 05:31:00,
2013-07-02 01:36:00,71.2,68.8,30.04,South,175,0.0,0.0,92,0.00,CLR,,0.00,0.0,WeatherDisplay:10.37,2013-07-02 05:36:00,
2013-07-02 01:41:00,71.2,68.8,30.03,South,175,0.0,0.0,92,0.00,CLR,,0.00,0.0,WeatherDisplay:10.37,2013-07-02 05:41:00,
2013-07-02 01:46:00,71.3,68.9,30.03,South,175,0.0,0.0,92,0.00,CLR,,0.00,0.0,WeatherDisplay:10.37,2013-07-02 05:46:00,
2013-07-02 01:51:00,71.3,68.5,30.03,South,175,0.0,0.0,91,0.00,CLR,,0.00,0.0,WeatherDisplay:10.37,2013-07-02 05:51:00,
2013-07-02 01:56:00,71.4,68.6,30.04,South,175,0.0,0.0,91,0.00,CLR,,0.00,0.0,WeatherDisplay:10.37,2013-07-02 05:56:00,
2013-07-02 02:01:00,71.4,68.6,30.03,South,175,0.0,1.2,91,0.00,CLR,,0.00,0.0,WeatherDisplay:10.37,2013-07-02 06:01:00,
2013-07-02 02:06:00,71.5,68.7,30.04,South,176,0.0,4.0,91,0.00,CLR,,0.00,0.0,WeatherDisplay:10.37,2013-07-02 06:06:00,
2013-07-02 02:11:00,71.5,68.7,30.04,South,176,0.0,0.0,91,0.00,CLR,,0.00,0.0,WeatherDisplay:10.37,2013-07-02 06:11:00,
2013-07-02 02:16:00,71.6,68.8,30.04,South,180,2.4,4.0,91,0.00,CLR,,0.00,0.0,WeatherDisplay:10.37,2013-07-02 06:16:00,
2013-07-02 02:21:00,71.6,68.8,30.04,South,180,1.7,4.6,91,0.00,CLR,,0.00,0.0,WeatherDisplay:10.37,2013-07-02 06:21:00,
2013-07-02 02:26:00,71.7,68.9,30.04,South,182,2.2,4.0,91,0.00,CLR,,0.00,0.0,WeatherDisplay:10.37,2013-07-02 06:26:00,
2013-07-02 02:32:00,71.7,68.9,30.03,South,180,2.5,5.8,91,0.00,CLR,,0.00,0.0,WeatherDisplay:10.37,2013-07-02 06:32:00,
2013-07-02 02:37:00,71.7,68.9,30.03,South,180,0.0,0.0,91,0.00,CLR,,0.00,0.0,WeatherDisplay:10.37,2013-07-02 06:37:00,
2013-07-02 02:42:00,71.7,68.9,30.04,South,180,0.1,2.0,91,0.00,CLR,,0.00,0.0,WeatherDisplay:10.37,2013-07-02 06:42:00,
2013-07-02 02:47:00,71.7,68.9,30.04,South,181,2.8,4.6,91,0.00,CLR,,0.00,0.0,WeatherDisplay:10.37,2013-07-02 06:47:00,
2013-07-02 02:52:00,71.7,68.9,30.04,South,181,0.9,3.5,91,0.00,CLR,,0.00,0.0,WeatherDisplay:10.37,2013-07-02 06:52:00,
2013-07-02 02:57:00,71.7,68.9,30.04,South,181,0.5,3.5,91,0.00,CLR,,0.00,0.0,WeatherDisplay:10.37,2013-07-02 06:57:00,
2013-07-02 03:02:00,71.7,68.9,30.04,South,182,0.1,2.3,91,0.00,CLR,,0.00,0.0,WeatherDisplay:10.37,2013-07-02 07:02:00,
2013-07-02 03:07:00,71.7,68.9,30.04,South,182,1.0,3.5,91,0.00,CLR,,0.00,0.0,WeatherDisplay:10.37,2013-07-02 07:07:00,
2013-07-02 03:12:00,71.8,69.0,30.04,South,182,0.0,0.0,91,0.00,CLR,,0.00,0.0,WeatherDisplay:10.37,2013-07-02 07:12:00,
2013-07-02 03:17:00,71.8,69.0,30.04,South,182,0.1,2.3,91,0.00,CLR,,0.00,0.0,WeatherDisplay:10.37,2013-07-02 07:17:00,
2013-07-02 03:22:00,71.8,69.0,30.04,South,182,1.0,3.5,91,0.00,CLR,,0.00,0.0,WeatherDisplay:10.37,2013-07-02 07:22:00,
2013-07-02 03:27:00,71.8,69.0,30.04,South,182,1.6,3.5,91,0.00,CLR,,0.00,0.0,WeatherDisplay:10.37,2013-07-02 07:27:00,
2013-07-02 03:32:00,71.8,69.0,30.03,South,182,2.4,3.5,91,0.00,CLR,,0.00,0.0,WeatherDisplay:10.37,2013-07-02 07:32:00,
2013-07-02 03:37:00,71.8,69.0,30.03,South,182,0.1,3.5,91,0.00,CLR,,0.00,0.0,WeatherDisplay:10.37,2013-07-02 07:37:00,
2013-07-02 03:42:00,71.7,68.9,30.04,South,182,0.7,2.3,91,0.00,CLR,,0.00,0.0,WeatherDisplay:10.37,2013-07-02 07:42:00,
2013-07-02 03:47:00,71.7,68.9,30.04,South,182,1.0,4.6,91,0.00,CLR,,0.00,0.0,WeatherDisplay:10.37,2013-07-02 07:47:00,
2013-07-02 03:52:00,71.8,69.0,30.04,South,186,0.6,3.5,91,0.00,CLR,,0.00,0.0,WeatherDisplay:10.37,2013-07-02 07:52:00,
2013-07-02 03:57:00,71.8,69.0,30.04,South,186,0.5,1.0,91,0.00,CLR,,0.00,0.0,WeatherDisplay:10.37,2013-07-02 07:57:00,
2013-07-02 04:02:00,71.8,69.0,30.04,South,186,0.1,3.0,91,0.00,CLR,,0.00,0.0,WeatherDisplay:10.37,2013-07-02 08:02:00,
2013-07-02 04:07:00,71.8,69.0,30.04,South,186,1.1,2.3,91,0.00,CLR,,0.00,0.0,WeatherDisplay:10.37,2013-07-02 08:07:00,
2013-07-02 04:12:00,71.7,68.9,30.04,South,186,0.0,0.0,91,0.00,CLR,,0.00,0.0,WeatherDisplay:10.37,2013-07-02 08:12:00,
2013-07-02 04:17:00,71.8,69.0,30.05,South,186,0.0,0.0,91,0.00,CLR,,0.00,0.0,WeatherDisplay:10.37,2013-07-02 08:17:00,
2013-07-02 04:22:00,71.7,68.9,30.04,South,186,2.0,3.5,91,0.00,CLR,,0.00,0.0,WeatherDisplay:10.37,2013-07-02 08:22:00,
2013-07-02 04:27:00,71.7,68.9,30.05,South,186,0.0,0.0,91,0.00,CLR,,0.00,0.0,WeatherDisplay:10.37,2013-07-02 08:27:00,
2013-07-02 04:32:00,71.7,68.9,30.04,South,186,0.1,2.0,91,0.00,CLR,,0.00,0.0,WeatherDisplay:10.37,2013-07-02 08:32:00,
2013-07-02 04:37:00,71.7,68.9,30.05,South,186,0.2,1.2,91,0.00,CLR,,0.00,0.0,WeatherDisplay:10.37,2013-07-02 08:37:00,
2013-07-02 04:42:00,71.7,68.9,30.05,South,186,0.0,0.0,91,0.00,CLR,,0.00,0.0,WeatherDisplay:10.37,2013-07-02 08:42:00,
2013-07-02 04:47:00,71.7,68.9,30.05,South,186,0.0,0.0,91,0.00,CLR,,0.00,0.0,WeatherDisplay:10.37,2013-07-02 08:47:00,
2013-07-02 04:52:00,71.6,68.8,30.05,South,186,0.0,0.0,91,0.00,CLR,,0.00,0.0,WeatherDisplay:10.37,2013-07-02 08:52:00,
2013-07-02 04:57:00,71.5,68.7,30.06,South,186,0.5,1.2,91,0.00,CLR,,0.00,0.0,WeatherDisplay:10.37,2013-07-02 08:57:00,
2013-07-02 05:02:00,71.6,68.8,30.06,South,186,0.0,0.0,91,0.00,CLR,,0.00,0.0,WeatherDisplay:10.37,2013-07-02 09:02:00,
2013-07-02 05:07:00,71.6,68.8,30.06,South,186,0.0,0.0,91,0.00,CLR,,0.00,0.0,WeatherDisplay:10.37,2013-07-02 09:07:00,
2013-07-02 05:12:00,71.6,68.8,30.06,South,186,0.0,0.0,91,0.00,CLR,,0.00,0.0,WeatherDisplay:10.37,2013-07-02 09:12:00,
2013-07-02 05:17:00,71.5,68.7,30.06,South,186,0.0,0.0,91,0.00,CLR,,0.00,0.0,WeatherDisplay:10.37,2013-07-02 09:17:00,
2013-07-02 05:22:00,71.5,68.7,30.06,South,186,0.0,0.0,91,0.00,CLR,,0.00,0.0,WeatherDisplay:10.37,2013-07-02 09:22:00,
2013-07-02 05:27:00,71.4,68.6,30.07,South,186,1.8,2.3,91,0.00,CLR,,0.00,0.0,WeatherDisplay:10.37,2013-07-02 09:27:00,
2013-07-02 05:32:00,71.3,68.9,30.07,South,186,1.9,3.5,92,0.00,CLR,,0.00,0.0,WeatherDisplay:10.37,2013-07-02 09:32:00,
2013-07-02 05:37:00,71.1,68.7,30.07,South,186,0.0,0.0,92,0.00,OVC,,0.00,0.0,WeatherDisplay:10.37,2013-07-02 09:37:00,
2013-07-02 05:42:00,70.8,68.0,30.07,South,186,0.5,2.3,91,0.00,OVC,,0.00,5.7,WeatherDisplay:10.37,2013-07-02 09:42:00,
2013-07-02 05:47:00,70.6,67.8,30.07,South,186,0.0,0.0,91,0.00,OVC,,0.00,0.0,WeatherDisplay:10.37,2013-07-02 09:47:00,
2013-07-02 05:52:00,70.4,67.6,30.07,South,186,0.0,0.0,91,0.00,OVC,,0.00,5.7,WeatherDisplay:10.37,2013-07-02 09:52:00,
2013-07-02 05:57:00,70.2,67.8,30.07,South,186,0.0,0.0,92,0.00,OVC,,0.00,0.0,WeatherDisplay:10.37,2013-07-02 09:57:00,
2013-07-02 06:02:00,70.0,67.3,30.07,South,186,0.0,0.0,91,0.00,OVC,,0.00,5.7,WeatherDisplay:10.37,2013-07-02 10:02:00,
2013-07-02 06:07:00,69.9,67.2,30.07,South,186,0.0,0.0,91,0.00,OVC,,0.00,12.4,WeatherDisplay:10.37,2013-07-02 10:07:00,
2013-07-02 06:12:00,69.7,67.3,30.07,South,186,0.0,0.0,92,0.00,OVC,,0.00,23.7,WeatherDisplay:10.37,2013-07-02 10:12:00,
2013-07-02 06:17:00,69.6,67.2,30.08,South,186,0.0,0.0,92,0.00,OVC,,0.00,18.1,WeatherDisplay:10.37,2013-07-02 10:17:00,
2013-07-02 06:22:00,69.5,67.1,30.07,South,186,0.0,0.0,92,0.00,OVC,,0.00,15.8,WeatherDisplay:10.37,2013-07-02 10:22:00,
2013-07-02 06:27:00,69.5,67.1,30.08,South,186,0.0,0.0,92,0.00,OVC,,0.00,18.1,WeatherDisplay:10.37,2013-07-02 10:27:00,
2013-07-02 06:32:00,69.3,66.9,30.08,South,186,0.0,0.0,92,0.00,OVC,,0.00,15.8,WeatherDisplay:10.37,2013-07-02 10:32:00,
2013-07-02 06:37:00,69.2,66.8,30.08,South,186,0.0,0.0,92,0.00,OVC,,0.00,18.1,WeatherDisplay:10.37,2013-07-02 10:37:00,
2013-07-02 06:42:00,69.1,66.7,30.08,South,186,0.0,0.0,92,0.00,OVC,,0.00,31.6,WeatherDisplay:10.37,2013-07-02 10:42:00,
2013-07-02 06:47:00,69.1,66.7,30.08,South,186,0.0,0.0,92,0.00,OVC,,0.00,33.9,WeatherDisplay:10.37,2013-07-02 10:47:00,
2013-07-02 06:52:00,69.0,66.9,30.08,South,186,0.0,0.0,93,0.00,OVC,,0.00,29.4,WeatherDisplay:10.37,2013-07-02 10:52:00,
2013-07-02 06:57:00,69.1,67.0,30.08,South,186,0.0,0.0,93,0.00,OVC,,0.00,53.1,WeatherDisplay:10.37,2013-07-02 10:57:00,
2013-07-02 07:02:00,69.2,67.1,30.08,South,186,0.0,0.0,93,0.00,OVC,,0.00,41.8,WeatherDisplay:10.37,2013-07-02 11:02:00,
2013-07-02 07:07:00,69.3,67.2,30.08,South,186,0.0,0.0,93,0.00,OVC,,0.00,33.9,WeatherDisplay:10.37,2013-07-02 11:07:00,
2013-07-02 07:12:00,69.3,67.2,30.08,South,186,0.0,0.0,93,0.00,OVC,,0.00,20.3,WeatherDisplay:10.37,2013-07-02 11:12:00,
2013-07-02 07:17:00,69.4,67.3,30.08,South,186,0.0,0.0,93,0.00,OVC,,0.00,21.5,WeatherDisplay:10.37,2013-07-02 11:17:00,
2013-07-02 07:22:00,69.5,67.4,30.08,South,186,0.0,0.0,93,0.00,OVC,,0.00,29.4,WeatherDisplay:10.37,2013-07-02 11:22:00,
2013-07-02 07:27:00,69.5,67.4,30.08,South,186,0.0,0.0,93,0.00,OVC,,0.00,29.4,WeatherDisplay:10.37,2013-07-02 11:27:00,
2013-07-02 07:32:00,69.6,67.5,30.08,South,186,0.0,0.0,93,0.00,OVC,,0.00,37.3,WeatherDisplay:10.37,2013-07-02 11:32:00,
2013-07-02 07:37:00,69.7,67.6,30.08,South,186,0.0,0.0,93,0.00,OVC,,0.00,65.5,WeatherDisplay:10.37,2013-07-02 11:37:00,
2013-07-02 07:42:00,69.8,67.7,30.08,South,186,0.0,0.0,93,0.00,OVC,,0.00,47.5,WeatherDisplay:10.37,2013-07-02 11:42:00,
2013-07-02 07:47:00,69.9,67.8,30.08,South,186,0.0,0.0,93,0.00,OVC,,0.00,39.5,WeatherDisplay:10.37,2013-07-02 11:47:00,
2013-07-02 07:52:00,70.0,67.9,30.08,South,186,0.0,0.0,93,0.00,OVC,,0.00,33.9,WeatherDisplay:10.37,2013-07-02 11:52:00,
2013-07-02 07:57:00,70.1,68.0,30.08,South,186,0.0,0.0,93,0.00,OVC,,0.00,44.1,WeatherDisplay:10.37,2013-07-02 11:57:00,
2013-07-02 08:02:00,70.2,68.1,30.08,South,186,0.0,0.0,93,0.00,OVC,,0.00,37.3,WeatherDisplay:10.37,2013-07-02 12:02:00,
2013-07-02 08:07:00,70.3,68.2,30.08,South,186,0.0,0.0,93,0.00,OVC,,0.00,52.0,WeatherDisplay:10.37,2013-07-02 12:07:00,
2013-07-02 08:12:00,70.3,68.2,30.09,South,186,0.0,0.0,93,0.00,OVC,,0.00,37.3,WeatherDisplay:10.37,2013-07-02 12:12:00,
2013-07-02 08:18:00,70.3,68.2,30.09,South,186,0.0,0.0,93,0.00,OVC,,0.00,61.0,WeatherDisplay:10.37,2013-07-02 12:18:00,
2013-07-02 08:23:00,70.3,68.2,30.09,South,186,0.0,0.0,93,0.00,OVC,,0.00,67.8,WeatherDisplay:10.37,2013-07-02 12:23:00,
2013-07-02 08:28:00,70.4,68.3,30.09,South,186,0.0,0.0,93,0.00,OVC,,0.00,120.9,WeatherDisplay:10.37,2013-07-02 12:28:00,
2013-07-02 08:33:00,70.6,68.5,30.09,South,186,0.0,0.0,93,0.00,BKN,,0.00,159.3,WeatherDisplay:10.37,2013-07-02 12:33:00,
2013-07-02 08:38:00,70.9,68.8,30.09,South,186,0.0,0.0,93,0.00,BKN,,0.00,168.4,WeatherDisplay:10.37,2013-07-02 12:38:00,
2013-07-02 08:43:00,71.1,69.0,30.09,South,186,0.1,1.2,93,0.00,OVC,,0.00,144.6,WeatherDisplay:10.37,2013-07-02 12:43:00,
2013-07-02 08:48:00,71.3,69.2,30.09,South,186,0.0,0.0,93,0.00,BKN,,0.00,193.2,WeatherDisplay:10.37,2013-07-02 12:48:00,
2013-07-02 08:53:00,71.7,69.9,30.09,South,186,0.0,0.0,94,0.00,BKN,,0.00,172.9,WeatherDisplay:10.37,2013-07-02 12:53:00,
2013-07-02 08:58:00,72.1,70.0,30.09,South,186,0.0,0.0,93,0.00,OVC,,0.00,139.0,WeatherDisplay:10.37,2013-07-02 12:58:00,
2013-07-02 09:03:00,72.3,70.2,30.09,South,186,0.0,0.0,93,0.00,BKN,,0.00,220.3,WeatherDisplay:10.37,2013-07-02 13:03:00,
2013-07-02 09:08:00,72.5,70.4,30.09,South,186,0.0,0.0,93,0.00,BKN,,0.00,193.2,WeatherDisplay:10.37,2013-07-02 13:08:00,
2013-07-02 09:13:00,72.7,70.2,30.09,South,186,0.0,0.0,92,0.00,BKN,,0.00,217.0,WeatherDisplay:10.37,2013-07-02 13:13:00,
2013-07-02 09:18:00,72.9,70.1,30.09,South,186,0.0,0.0,91,0.00,BKN,,0.00,175.2,WeatherDisplay:10.37,2013-07-02 13:18:00,
2013-07-02 09:23:00,73.0,70.2,30.09,South,186,1.0,2.3,91,0.00,OVC,,0.00,123.2,WeatherDisplay:10.37,2013-07-02 13:23:00,
2013-07-02 09:28:00,72.9,70.1,30.10,South,186,1.2,2.3,91,0.00,OVC,,0.00,105.1,WeatherDisplay:10.37,2013-07-02 13:28:00,
2013-07-02 09:33:00,72.8,70.0,30.09,South,186,0.0,0.0,91,0.00,BKN,,0.00,244.1,WeatherDisplay:10.37,2013-07-02 13:33:00,
2013-07-02 09:38:00,72.9,70.1,30.10,South,186,0.0,1.0,91,0.00,BKN,,0.00,367.3,WeatherDisplay:10.37,2013-07-02 13:38:00,
2013-07-02 09:43:00,73.5,71.0,30.09,South,186,0.0,0.0,92,0.00,SCT,,0.00,435.1,WeatherDisplay:10.37,2013-07-02 13:43:00,
2013-07-02 09:48:00,73.8,70.7,30.09,South,186,0.0,1.2,90,0.00,BKN,,0.00,317.5,WeatherDisplay:10.37,2013-07-02 13:48:00,
2013-07-02 09:53:00,73.8,70.0,30.09,South,186,0.0,0.0,88,0.00,OVC,,0.00,167.2,WeatherDisplay:10.37,2013-07-02 13:53:00,
2013-07-02 09:58:00,73.7,70.3,30.09,South,186,0.1,1.0,89,0.00,OVC,,0.00,125.4,WeatherDisplay:10.37,2013-07-02 13:58:00,
2013-07-02 10:03:00,73.6,70.5,30.09,South,186,0.0,0.0,90,0.00,OVC,,0.00,135.6,WeatherDisplay:10.37,2013-07-02 14:03:00,
2013-07-02 10:08:00,73.6,70.5,30.09,South,186,0.0,0.0,90,0.00,OVC,,0.00,135.6,WeatherDisplay:10.37,2013-07-02 14:08:00,
2013-07-02 10:13:00,73.5,70.4,30.09,South,186,0.0,0.0,90,0.00,OVC,,0.00,135.6,WeatherDisplay:10.37,2013-07-02 14:13:00,
2013-07-02 10:18:00,73.5,70.4,30.08,South,186,0.0,0.0,90,0.00,BKN,,0.00,236.2,WeatherDisplay:10.37,2013-07-02 14:18:00,
2013-07-02 10:23:00,73.7,70.9,30.08,South,186,0.0,0.0,91,0.00,BKN,,0.00,282.5,WeatherDisplay:10.37,2013-07-02 14:23:00,
2013-07-02 10:28:00,73.9,70.8,30.08,South,186,0.0,0.0,90,0.00,BKN,,0.00,403.4,WeatherDisplay:10.37,2013-07-02 14:28:00,
2013-07-02 10:33:00,74.6,71.8,30.08,South,186,0.0,0.0,91,0.00,SCT,,0.00,377.4,WeatherDisplay:10.37,2013-07-02 14:33:00,
2013-07-02 10:38:00,75.0,71.5,30.08,South,186,0.0,0.0,89,0.00,BKN,,0.00,210.2,WeatherDisplay:10.37,2013-07-02 14:38:00,
2013-07-02 10:43:00,75.3,71.8,30.08,South,186,0.0,1.2,89,0.00,OVC,,0.00,165.0,WeatherDisplay:10.37,2013-07-02 14:43:00,
2013-07-02 10:48:00,75.6,71.8,30.08,South,186,0.1,3.5,88,0.00,BKN,,0.00,435.1,WeatherDisplay:10.37,2013-07-02 14:48:00,
2013-07-02 10:53:00,75.9,72.4,30.08,South,186,0.9,2.0,89,0.00,BKN,,0.00,240.7,WeatherDisplay:10.37,2013-07-02 14:53:00,
2013-07-02 10:58:00,76.2,71.7,30.08,South,186,0.5,5.0,86,0.00,BKN,,0.00,369.5,WeatherDisplay:10.37,2013-07-02 14:58:00,
2013-07-02 11:03:00,76.6,72.4,30.08,South,189,1.4,4.6,87,0.00,SCT,,0.00,455.4,WeatherDisplay:10.37,2013-07-02 15:03:00,
2013-07-02 11:08:00,77.2,73.4,30.08,South,189,0.0,0.0,88,0.00,SCT,,0.00,474.6,WeatherDisplay:10.37,2013-07-02 15:08:00,
2013-07-02 11:13:00,77.6,72.7,30.09,South,189,0.0,1.2,85,0.00,BKN,,0.00,405.7,WeatherDisplay:10.37,2013-07-02 15:13:00,
2013-07-02 11:18:00,77.8,72.6,30.09,South,189,0.7,3.5,84,0.00,BKN,,0.00,372.9,WeatherDisplay:10.37,2013-07-02 15:18:00,
2013-07-02 11:23:00,77.8,72.9,30.09,South,189,0.4,0.0,85,0.00,BKN,,0.00,322.1,WeatherDisplay:10.37,2013-07-02 15:23:00,
2013-07-02 11:28:00,77.8,72.6,30.09,South,189,1.0,3.5,84,0.00,BKN,,0.00,299.4,WeatherDisplay:10.37,2013-07-02 15:28:00,
2013-07-02 11:33:00,77.6,72.7,30.09,South,189,0.2,1.2,85,0.00,OVC,,0.00,327.7,WeatherDisplay:10.37,2013-07-02 15:33:00,
2013-07-02 11:38:00,77.3,72.4,30.09,SSW,194,2.4,3.5,85,0.00,BKN,,0.00,162.7,WeatherDisplay:10.37,2013-07-02 15:38:00,
2013-07-02 11:43:00,76.9,72.0,30.10,SSW,194,0.0,0.0,85,0.00,BKN,,0.00,492.7,WeatherDisplay:10.37,2013-07-02 15:43:00,
2013-07-02 11:48:00,76.8,72.3,30.10,SSW,194,2.2,3.5,86,0.00,BKN,,0.00,500.6,WeatherDisplay:10.37,2013-07-02 15:48:00,
2013-07-02 11:53:00,77.0,72.1,30.10,WSW,246,3.0,4.6,85,0.00,SCT,,0.00,471.2,WeatherDisplay:10.37,2013-07-02 15:53:00,
2013-07-02 11:58:00,77.1,72.2,30.09,WSW,246,0.1,1.2,85,0.00,BKN,,0.00,540.1,WeatherDisplay:10.37,2013-07-02 15:58:00,
2013-07-02 12:03:00,77.1,71.9,30.09,WSW,246,0.1,2.3,84,0.00,BKN,,0.00,238.4,WeatherDisplay:10.37,2013-07-02 16:03:00,
2013-07-02 12:08:00,77.1,72.2,30.10,WSW,246,0.0,1.0,85,0.00,OVC,,0.00,357.1,WeatherDisplay:10.37,2013-07-02 16:08:00,
2013-07-02 12:13:00,77.2,72.3,30.10,WSW,246,0.0,1.2,85,0.00,BKN,,0.00,409.1,WeatherDisplay:10.37,2013-07-02 16:13:00,
2013-07-02 12:18:00,77.4,72.2,30.10,WSW,246,0.0,1.2,84,0.00,OVC,,0.00,178.5,WeatherDisplay:10.37,2013-07-02 16:18:00,
2013-07-02 12:23:00,77.5,71.9,30.10,WSW,246,0.1,2.3,83,0.00,OVC,,0.00,256.5,WeatherDisplay:10.37,2013-07-02 16:23:00,
2013-07-02 12:28:00,78.2,73.3,30.10,WSW,246,0.1,1.2,85,0.00,FEW,,0.00,676.9,WeatherDisplay:10.37,2013-07-02 16:28:00,
2013-07-02 12:33:00,78.9,73.3,30.10,West,261,0.8,3.5,83,0.00,SCT,,0.00,474.6,WeatherDisplay:10.37,2013-07-02 16:33:00,
2013-07-02 12:38:00,79.2,73.2,30.09,SW,236,2.2,4.6,82,0.00,BKN,,0.00,422.6,WeatherDisplay:10.37,2013-07-02 16:38:00,
2013-07-02 12:43:00,79.6,73.6,30.09,SW,216,1.2,3.5,82,0.00,BKN,,0.00,453.1,WeatherDisplay:10.37,2013-07-02 16:43:00,
2013-07-02 12:48:00,79.7,73.3,30.09,SSW,194,0.5,2.3,81,0.00,SCT,,0.00,568.4,WeatherDisplay:10.37,2013-07-02 16:48:00,
2013-07-02 12:53:00,80.3,73.6,30.09,SSW,194,1.9,3.5,80,0.00,FEW,,0.00,972.9,WeatherDisplay:10.37,2013-07-02 16:53:00,
2013-07-02 12:58:00,80.9,74.1,30.09,South,184,3.9,11.5,80,0.00,FEW,,0.00,701.7,WeatherDisplay:10.37,2013-07-02 16:58:00,
2013-07-02 13:03:00,81.0,73.1,30.09,SSW,205,3.5,5.8,77,0.00,SCT,,0.00,644.1,WeatherDisplay:10.37,2013-07-02 17:03:00,
2013-07-02 13:08:00,81.0,73.5,30.09,South,191,2.5,8.1,78,0.00,SCT,,0.00,498.3,WeatherDisplay:10.37,2013-07-02 17:08:00,
2013-07-02 13:13:00,80.9,73.0,30.09,South,184,3.9,9.2,77,0.00,SCT,,0.00,595.5,WeatherDisplay:10.37,2013-07-02 17:13:00,
2013-07-02 13:18:00,81.0,73.9,30.08,SSW,196,2.9,9.2,79,0.00,SCT,,0.00,705.1,WeatherDisplay:10.37,2013-07-02 17:18:00,
2013-07-02 13:23:00,81.5,74.0,30.08,SSW,207,3.3,8.1,78,0.00,FEW,,0.00,865.6,WeatherDisplay:10.37,2013-07-02 17:23:00,
2013-07-02 13:28:00,82.0,74.1,30.08,SSW,204,3.6,6.9,77,0.00,FEW,,0.00,904.0,WeatherDisplay:10.37,2013-07-02 17:28:00,
2013-07-02 13:33:00,82.6,75.4,30.07,South,187,1.8,4.6,79,0.00,CLR,,0.00,1096.1,WeatherDisplay:10.37,2013-07-02 17:33:00,
2013-07-02 13:38:00,83.2,74.4,30.08,SSW,212,4.1,7.0,75,0.01,RA,,0.01,1096.1,WeatherDisplay:10.37,2013-07-02 17:38:00,
2013-07-02 13:43:00,83.1,73.5,30.08,South,188,5.8,13.8,73,0.01,RA,,0.01,681.4,WeatherDisplay:10.37,2013-07-02 17:43:00,
2013-07-02 13:48:00,83.1,73.9,30.07,SSW,198,2.8,8.1,74,0.01,SCT,,0.01,582.0,WeatherDisplay:10.37,2013-07-02 17:48:00,
2013-07-02 13:54:00,82.8,73.3,30.08,SW,214,3.7,5.8,73,0.01,SCT,,0.01,552.6,WeatherDisplay:10.37,2013-07-02 17:54:00,
2013-07-02 13:59:00,82.3,73.2,30.07,South,191,3.3,5.8,74,0.01,SCT,,0.01,578.6,WeatherDisplay:10.37,2013-07-02 17:59:00,
2013-07-02 14:04:00,82.1,73.0,30.07,SSW,204,1.9,3.5,74,0.01,SCT,,0.01,659.9,WeatherDisplay:10.37,2013-07-02 18:04:00,
2013-07-02 14:09:00,82.6,74.7,30.07,SW,219,4.0,8.1,77,0.01,CLR,,0.01,1009.1,WeatherDisplay:10.37,2013-07-02 18:09:00,
2013-07-02 14:14:00,83.1,73.9,30.07,SW,215,6.3,13.8,74,0.01,SCT,,0.01,676.9,WeatherDisplay:10.37,2013-07-02 18:14:00,
2013-07-02 14:19:00,83.6,74.0,30.07,South,186,5.0,10.0,73,0.01,CLR,,0.01,1082.5,WeatherDisplay:10.37,2013-07-02 18:19:00,
2013-07-02 14:24:00,83.7,73.7,30.07,South,182,8.2,16.1,72,0.01,FEW,,0.01,633.9,WeatherDisplay:10.37,2013-07-02 18:24:00,
2013-07-02 14:29:00,83.5,74.3,30.07,SSW,198,6.4,17.3,74,0.01,SCT,,0.01,633.9,WeatherDisplay:10.37,2013-07-02 18:29:00,
2013-07-02 14:34:00,83.6,74.4,30.06,South,175,8.0,10.4,74,0.01,CLR,,0.01,864.5,WeatherDisplay:10.37,2013-07-02 18:34:00,
2013-07-02 14:39:00,83.5,73.5,30.06,South,187,5.9,10.4,72,0.00,SCT,,0.01,647.5,WeatherDisplay:10.37,2013-07-02 18:39:00,
2013-07-02 14:44:00,83.3,74.1,30.06,SSE,167,7.7,11.5,74,0.00,BKN,,0.01,597.8,WeatherDisplay:10.37,2013-07-02 18:44:00,
2013-07-02 14:49:00,83.0,72.6,30.06,SSW,200,2.8,6.0,71,0.00,SCT,,0.01,568.4,WeatherDisplay:10.37,2013-07-02 18:49:00,
2013-07-02 14:54:00,83.2,73.6,30.06,South,180,4.3,11.5,73,0.00,FEW,,0.01,1062.2,WeatherDisplay:10.37,2013-07-02 18:54:00,
2013-07-02 14:59:00,83.5,74.3,30.06,SSW,194,7.6,14.0,74,0.00,FEW,,0.01,720.9,WeatherDisplay:10.37,2013-07-02 18:59:00,
2013-07-02 15:04:00,83.6,73.2,30.06,SSW,194,6.7,13.0,71,0.00,SCT,,0.01,385.3,WeatherDisplay:10.37,2013-07-02 19:04:00,
2013-07-02 15:09:00,83.2,72.8,30.06,SSW,193,2.3,10.4,71,0.00,BKN,,0.01,383.1,WeatherDisplay:10.37,2013-07-02 19:09:00,
2013-07-02 15:14:00,82.9,72.9,30.06,SSW,201,5.3,9.2,72,0.00,SCT,,0.01,476.9,WeatherDisplay:10.37,2013-07-02 19:14:00,
2013-07-02 15:19:00,82.7,73.6,30.06,South,183,7.2,10.4,74,0.00,SCT,,0.01,542.4,WeatherDisplay:10.37,2013-07-02 19:19:00,
2013-07-02 15:24:00,82.9,74.2,30.06,SSW,210,5.3,11.5,75,0.00,CLR,,0.01,1176.3,WeatherDisplay:10.37,2013-07-02 19:24:00,
2013-07-02 15:29:00,83.1,73.9,30.06,South,182,3.8,8.1,74,0.00,FEW,,0.01,315.3,WeatherDisplay:10.37,2013-07-02 19:29:00,
2013-07-02 15:34:00,82.8,73.7,30.06,South,190,5.2,6.9,74,0.00,BKN,,0.01,348.0,WeatherDisplay:10.37,2013-07-02 19:34:00,
2013-07-02 15:39:00,82.5,72.6,30.06,SSW,209,3.7,5.8,72,0.00,BKN,,0.01,272.3,WeatherDisplay:10.37,2013-07-02 19:39:00,
2013-07-02 15:44:00,82.1,72.6,30.06,South,186,1.2,6.9,73,0.00,BKN,,0.01,254.3,WeatherDisplay:10.37,2013-07-02 19:44:00,
2013-07-02 15:49:00,81.8,72.3,30.06,South,188,6.1,12.0,73,0.00,BKN,,0.01,322.1,WeatherDisplay:10.37,2013-07-02 19:49:00,
2013-07-02 15:54:00,81.5,72.8,30.05,SSW,192,4.8,9.2,75,0.00,BKN,,0.01,377.4,WeatherDisplay:10.37,2013-07-02 19:54:00,
2013-07-02 15:59:00,81.9,74.0,30.05,SSW,197,8.3,10.4,77,0.00,BKN,,0.01,363.9,WeatherDisplay:10.37,2013-07-02 19:59:00,
2013-07-02 16:04:00,82.8,74.5,30.05,SSW,193,2.5,3.5,76,0.00,BKN,,0.01,363.9,WeatherDisplay:10.37,2013-07-02 20:04:00,
2013-07-02 16:09:00,83.7,74.1,30.05,SSW,199,3.4,3.5,73,0.00,CLR,,0.01,901.7,WeatherDisplay:10.37,2013-07-02 20:09:00,
2013-07-02 16:14:00,84.2,74.2,30.06,South,190,4.1,8.0,72,0.00,SCT,,0.01,348.0,WeatherDisplay:10.37,2013-07-02 20:14:00,
2013-07-02 16:19:00,84.2,73.3,30.06,SW,233,5.5,6.9,70,0.00,CLR,,0.01,765.0,WeatherDisplay:10.37,2013-07-02 20:19:00,
2013-07-02 16:24:00,84.2,73.8,30.06,SSW,209,3.5,6.9,71,0.00,CLR,,0.01,702.9,WeatherDisplay:10.37,2013-07-02 20:24:00,
2013-07-02 16:29:00,84.3,73.9,30.06,SSW,200,2.2,3.5,71,0.00,FEW,,0.01,725.5,WeatherDisplay:10.37,2013-07-02 20:29:00,
2013-07-02 16:34:00,84.3,73.4,30.06,SSW,197,5.6,6.0,70,0.00,SCT,,0.01,270.1,WeatherDisplay:10.37,2013-07-02 20:34:00,
2013-07-02 16:39:00,83.6,73.6,30.06,SSW,192,3.6,6.9,72,0.00,BKN,,0.01,238.4,WeatherDisplay:10.37,2013-07-02 20:39:00,
2013-07-02 16:44:00,82.9,73.4,30.06,SSW,211,4.5,10.4,73,0.00,BKN,,0.01,204.5,WeatherDisplay:10.37,2013-07-02 20:44:00,
2013-07-02 16:49:00,82.2,73.1,30.06,South,191,3.5,5.8,74,0.00,OVC,,0.01,136.7,WeatherDisplay:10.37,2013-07-02 20:49:00,
2013-07-02 16:54:00,81.7,72.6,30.06,SSW,196,4.4,10.4,74,0.00,OVC,,0.01,167.2,WeatherDisplay:10.37,2013-07-02 20:54:00,
2013-07-02 16:59:00,81.3,72.2,30.06,SSW,209,2.3,11.5,74,0.00,BKN,,0.01,238.4,WeatherDisplay:10.37,2013-07-02 20:59:00,
2013-07-02 17:04:00,81.1,72.4,30.07,SSW,200,5.0,8.1,75,0.00,SCT,,0.01,210.2,WeatherDisplay:10.37,2013-07-02 21:04:00,
2013-07-02 17:09:00,81.0,72.7,30.07,SSW,201,4.4,5.8,76,0.00,SCT,,0.01,228.3,WeatherDisplay:10.37,2013-07-02 21:09:00,
2013-07-02 17:14:00,80.9,73.0,30.07,SW,215,3.1,5.8,77,0.00,SCT,,0.01,230.5,WeatherDisplay:10.37,2013-07-02 21:14:00,
2013-07-02 17:19:00,80.8,72.9,30.07,SSW,200,2.2,5.8,77,0.00,SCT,,0.01,244.1,WeatherDisplay:10.37,2013-07-02 21:19:00,
2013-07-02 17:24:00,80.8,73.3,30.06,South,178,4.9,5.8,78,0.00,FEW,,0.01,262.2,WeatherDisplay:10.37,2013-07-02 21:24:00,
2013-07-02 17:29:00,80.9,73.4,30.06,SSW,207,3.7,5.8,78,0.00,FEW,,0.01,298.3,WeatherDisplay:10.37,2013-07-02 21:29:00,
2013-07-02 17:34:00,81.1,73.6,30.06,South,179,2.8,3.5,78,0.00,CLR,,0.01,270.1,WeatherDisplay:10.37,2013-07-02 21:34:00,
2013-07-02 17:39:00,81.2,73.7,30.05,SSW,198,3.1,8.1,78,0.00,FEW,,0.01,194.4,WeatherDisplay:10.37,2013-07-02 21:39:00,
2013-07-02 17:44:00,81.1,72.8,30.06,SSW,202,2.6,5.8,76,0.00,SCT,,0.01,188.7,WeatherDisplay:10.37,2013-07-02 21:44:00,
2013-07-02 17:49:00,81.1,73.2,30.06,SW,216,0.6,3.0,77,0.00,SCT,,0.01,196.6,WeatherDisplay:10.37,2013-07-02 21:49:00,
2013-07-02 17:54:00,80.9,73.0,30.06,SSW,194,3.7,6.9,77,0.00,SCT,,0.01,135.6,WeatherDisplay:10.37,2013-07-02 21:54:00,
2013-07-02 17:59:00,80.7,72.8,30.06,South,181,3.4,9.2,77,0.00,BKN,,0.01,128.8,WeatherDisplay:10.37,2013-07-02 21:59:00,
2013-07-02 18:04:00,80.6,72.7,30.06,SSW,205,3.6,4.6,77,0.00,SCT,,0.01,141.3,WeatherDisplay:10.37,2013-07-02 22:04:00,
2013-07-02 18:09:00,80.5,73.0,30.06,South,184,3.8,10.4,78,0.00,BKN,,0.01,93.8,WeatherDisplay:10.37,2013-07-02 22:09:00,
2013-07-02 18:14:00,80.3,72.4,30.06,SSW,213,2.0,5.8,77,0.00,BKN,,0.01,78.0,WeatherDisplay:10.37,2013-07-02 22:14:00,
2013-07-02 18:19:00,80.2,72.3,30.06,SW,215,4.6,6.9,77,0.00,BKN,,0.01,89.3,WeatherDisplay:10.37,2013-07-02 22:19:00,
2013-07-02 18:24:00,80.1,72.2,30.07,South,191,4.5,6.9,77,0.00,BKN,,0.01,105.1,WeatherDisplay:10.37,2013-07-02 22:24:00,
2013-07-02 18:29:00,80.0,72.1,30.07,SSW,198,1.9,3.5,77,0.00,BKN,,0.01,109.6,WeatherDisplay:10.37,2013-07-02 22:29:00,
2013-07-02 18:34:00,79.9,72.0,30.07,South,188,3.7,11.5,77,0.00,BKN,,0.01,107.3,WeatherDisplay:10.37,2013-07-02 22:34:00,
2013-07-02 18:39:00,79.8,72.3,30.07,SSW,213,4.7,10.4,78,0.00,BKN,,0.01,105.1,WeatherDisplay:10.37,2013-07-02 22:39:00,
2013-07-02 18:44:00,79.8,72.3,30.07,South,185,5.3,10.4,78,0.00,SCT,,0.01,107.3,WeatherDisplay:10.37,2013-07-02 22:44:00,
2013-07-02 18:45:00,79.8,72.3,30.07,South,187,5.6,10.4,78,0.00,SCT,,0.01,107.3,WeatherDisplay:10.37,2013-07-02 22:45:00,
2013-07-02 18:50:00,79.8,72.3,30.07,South,190,5.0,11.5,78,0.00,SCT,,0.01,94.9,WeatherDisplay:10.37,2013-07-02 22:50:00,
2013-07-02 18:55:00,79.8,72.7,30.07,South,190,1.2,5.0,79,0.00,SCT,,0.01,110.7,WeatherDisplay:10.37,2013-07-02 22:55:00,
2013-07-02 19:00:00,79.8,72.7,30.07,South,183,4.5,8.1,79,0.00,SCT,,0.01,125.4,WeatherDisplay:10.37,2013-07-02 23:00:00,
2013-07-02 19:05:00,79.8,72.7,30.07,SSE,168,4.6,8.1,79,0.00,BKN,,0.01,105.1,WeatherDisplay:10.37,2013-07-02 23:05:00,
2013-07-02 19:10:00,79.8,72.7,30.08,SSW,193,1.6,3.5,79,0.00,BKN,,0.01,65.5,WeatherDisplay:10.37,2013-07-02 23:10:00,
2013-07-02 19:15:00,79.7,72.6,30.08,SSW,194,2.1,4.0,79,0.00,BKN,,0.01,44.1,WeatherDisplay:10.37,2013-07-02 23:15:00,
2013-07-02 19:20:00,79.6,72.5,30.08,South,183,1.5,6.9,79,0.00,BKN,,0.01,31.6,WeatherDisplay:10.37,2013-07-02 23:20:00,
2013-07-02 19:25:00,79.5,72.8,30.08,SSW,207,4.1,9.2,80,0.00,BKN,,0.01,39.5,WeatherDisplay:10.37,2013-07-02 23:25:00,
2013-07-02 19:29:00,79.4,72.3,30.09,South,191,4.5,5.8,79,0.00,BKN,,0.01,29.4,WeatherDisplay:10.37,2013-07-02 23:29:00,
2013-07-02 19:34:00,79.3,72.2,30.09,SSW,204,3.7,9.2,79,0.00,BKN,,0.01,15.8,WeatherDisplay:10.37,2013-07-02 23:34:00,
2013-07-02 19:39:00,79.3,72.2,30.09,SSW,196,2.8,5.8,79,0.00,BKN,,0.01,13.6,WeatherDisplay:10.37,2013-07-02 23:39:00,
2013-07-02 19:44:00,79.2,72.1,30.09,South,185,4.6,8.0,79,0.00,BKN,,0.01,7.9,WeatherDisplay:10.37,2013-07-02 23:44:00,
2013-07-02 19:49:00,79.1,72.0,30.09,South,181,0.2,3.0,79,0.00,BKN,,0.01,7.9,WeatherDisplay:10.37,2013-07-02 23:49:00,
2013-07-02 19:54:00,79.0,71.9,30.09,South,190,2.4,6.9,79,0.00,BKN,,0.01,10.2,WeatherDisplay:10.37,2013-07-02 23:54:00,
2013-07-02 19:59:00,78.9,71.8,30.09,South,189,2.1,6.9,79,0.00,BKN,,0.01,12.4,WeatherDisplay:10.37,2013-07-02 23:59:00,
2013-07-02 20:01:00,78.9,71.8,30.09,South,190,1.8,4.0,79,0.00,BKN,,0.01,13.6,WeatherDisplay:10.37,2013-07-03 00:01:00,
2013-07-02 20:06:00,78.8,71.7,30.09,SSW,194,1.6,3.5,79,0.00,BKN,,0.01,10.2,WeatherDisplay:10.37,2013-07-03 00:06:00,
2013-07-02 20:11:00,78.7,72.0,30.09,South,177,2.7,6.9,80,0.00,BKN,,0.01,7.9,WeatherDisplay:10.37,2013-07-03 00:11:00,
2013-07-02 20:16:00,78.5,71.8,30.09,South,184,4.4,8.1,80,0.00,BKN,,0.01,5.7,WeatherDisplay:10.37,2013-07-03 00:16:00,
2013-07-02 20:21:00,78.4,71.7,30.09,SSW,195,2.2,3.5,80,0.00,BKN,,0.01,0.0,WeatherDisplay:10.37,2013-07-03 00:21:00,
2013-07-02 20:23:00,78.4,71.7,30.09,South,188,1.8,3.5,80,0.00,BKN,,0.01,0.0,WeatherDisplay:10.37,2013-07-03 00:23:00,
2013-07-02 20:24:00,78.4,71.7,30.09,South,184,1.2,4.0,80,0.00,BKN,,0.01,0.0,WeatherDisplay:10.37,2013-07-03 00:24:00,
2013-07-02 20:28:00,78.3,72.0,30.09,SSW,194,1.9,4.6,81,0.00,BKN,,0.01,0.0,WeatherDisplay:10.37,2013-07-03 00:28:00,
2013-07-02 20:33:00,78.2,71.9,30.09,South,185,2.2,4.6,81,0.00,BKN,,0.01,0.0,WeatherDisplay:10.37,2013-07-03 00:33:00,
2013-07-02 20:38:00,78.0,71.7,30.09,South,183,0.6,3.5,81,0.00,BKN,,0.01,0.0,WeatherDisplay:10.37,2013-07-03 00:38:00,
2013-07-02 20:43:00,78.0,71.7,30.09,SSW,194,4.3,9.2,81,0.00,BKN,,0.01,0.0,WeatherDisplay:10.37,2013-07-03 00:43:00,
2013-07-02 20:48:00,77.9,72.0,30.09,South,187,4.9,9.2,82,0.00,BKN,,0.01,0.0,WeatherDisplay:10.37,2013-07-03 00:48:00,
2013-07-02 20:53:00,77.7,71.8,30.09,South,183,3.3,11.5,82,0.00,BKN,,0.01,0.0,WeatherDisplay:10.37,2013-07-03 00:53:00,
2013-07-02 20:58:00,77.6,71.7,30.10,SSW,194,1.6,3.5,82,0.00,BKN,,0.01,0.0,WeatherDisplay:10.37,2013-07-03 00:58:00,
2013-07-02 21:00:00,77.6,71.7,30.10,SSW,197,3.4,9.2,82,0.00,BKN,,0.01,0.0,WeatherDisplay:10.37,2013-07-03 01:00:00,
2013-07-02 21:03:00,77.5,71.6,30.10,SSW,196,3.9,6.9,82,0.00,BKN,,0.01,0.0,WeatherDisplay:10.37,2013-07-03 01:03:00,
2013-07-02 21:08:00,77.4,71.8,30.10,SSW,202,3.9,7.0,83,0.00,BKN,,0.01,0.0,WeatherDisplay:10.37,2013-07-03 01:08:00,
2013-07-02 21:10:00,77.3,71.4,30.10,SSW,192,3.4,5.0,82,0.00,BKN,,0.01,0.0,WeatherDisplay:10.37,2013-07-03 01:10:00,
2013-07-02 21:15:00,77.2,71.6,30.10,SSW,195,2.9,4.6,83,0.00,BKN,,0.01,0.0,WeatherDisplay:10.37,2013-07-03 01:15:00,
2013-07-02 21:20:00,77.1,71.5,30.11,SSW,196,4.2,5.8,83,0.00,BKN,,0.01,0.0,WeatherDisplay:10.37,2013-07-03 01:20:00,
2013-07-02 21:25:00,77.0,71.4,30.11,SSW,193,2.4,5.8,83,0.00,BKN,,0.01,0.0,WeatherDisplay:10.37,2013-07-03 01:25:00,
2013-07-02 21:26:00,77.0,71.4,30.11,SSW,192,2.4,4.0,83,0.00,BKN,,0.01,0.0,WeatherDisplay:10.37,2013-07-03 01:26:00,
2013-07-02 21:31:00,76.9,71.3,30.11,South,184,5.1,11.5,83,0.00,BKN,,0.01,0.0,WeatherDisplay:10.37,2013-07-03 01:31:00,
2013-07-02 21:36:00,76.9,71.3,30.12,SSW,194,4.7,9.2,83,0.00,BKN,,0.01,0.0,WeatherDisplay:10.37,2013-07-03 01:36:00,
2013-07-02 21:41:00,76.8,71.2,30.12,South,190,5.4,10.4,83,0.00,BKN,,0.01,0.0,WeatherDisplay:10.37,2013-07-03 01:41:00,
2013-07-02 21:46:00,76.8,71.2,30.12,SSW,200,2.2,4.0,83,0.00,BKN,,0.01,0.0,WeatherDisplay:10.37,2013-07-03 01:46:00,
2013-07-02 21:49:00,76.8,71.2,30.12,SSW,207,4.1,5.0,83,0.00,BKN,,0.01,0.0,WeatherDisplay:10.37,2013-07-03 01:49:00,
2013-07-02 21:50:00,76.7,71.1,30.12,SSW,192,4.9,8.1,83,0.00,BKN,,0.01,0.0,WeatherDisplay:10.37,2013-07-03 01:50:00,
2013-07-02 21:56:00,76.7,71.1,30.12,SSW,194,5.3,10.4,83,0.00,BKN,,0.01,0.0,WeatherDisplay:10.37,2013-07-03 01:56:00,
2013-07-02 22:01:00,76.7,71.1,30.12,SSW,204,3.8,8.1,83,0.00,BKN,,0.01,0.0,WeatherDisplay:10.37,2013-07-03 02:01:00,
2013-07-02 22:06:00,76.7,71.1,30.12,South,180,4.0,9.2,83,0.00,BKN,,0.01,0.0,WeatherDisplay:10.37,2013-07-03 02:06:00,
2013-07-02 22:11:00,76.6,71.0,30.12,SSW,196,7.2,15.0,83,0.00,BKN,,0.01,0.0,WeatherDisplay:10.37,2013-07-03 02:11:00,
2013-07-02 22:16:00,76.5,70.9,30.12,SSE,153,4.4,9.2,83,0.00,BKN,,0.01,0.0,WeatherDisplay:10.37,2013-07-03 02:16:00,
2013-07-02 22:21:00,76.4,71.2,30.12,South,186,4.9,11.5,84,0.00,BKN,,0.01,0.0,WeatherDisplay:10.37,2013-07-03 02:21:00,
2013-07-02 22:27:00,76.3,71.1,30.12,SSW,194,2.4,3.5,84,0.00,BKN,,0.01,0.0,WeatherDisplay:10.37,2013-07-03 02:27:00,
2013-07-02 22:32:00,76.2,71.0,30.12,South,188,2.9,4.0,84,0.00,BKN,,0.01,0.0,WeatherDisplay:10.37,2013-07-03 02:32:00,
2013-07-02 22:37:00,76.1,70.9,30.12,South,188,2.6,7.0,84,0.00,BKN,,0.01,0.0,WeatherDisplay:10.37,2013-07-03 02:37:00,
2013-07-02 22:43:00,76.0,70.8,30.12,SSW,201,4.8,10.4,84,0.00,BKN,,0.01,0.0,WeatherDisplay:10.37,2013-07-03 02:43:00,
2013-07-02 22:46:00,76.0,70.8,30.12,SSW,200,1.5,3.5,84,0.00,BKN,,0.01,0.0,WeatherDisplay:10.37,2013-07-03 02:46:00,
2013-07-02 22:51:00,75.9,71.1,30.12,South,182,5.4,8.1,85,0.00,BKN,,0.01,0.0,WeatherDisplay:10.37,2013-07-03 02:51:00,
2013-07-02 22:56:00,75.8,71.0,30.12,South,172,3.5,7.0,85,0.00,BKN,,0.01,0.0,WeatherDisplay:10.37,2013-07-03 02:56:00,
2013-07-02 23:02:00,75.9,71.1,30.12,South,176,4.6,10.4,85,0.00,BKN,,0.01,0.0,WeatherDisplay:10.37,2013-07-03 03:02:00,
2013-07-02 23:07:00,75.9,71.1,30.12,SSW,202,3.0,5.8,85,0.00,BKN,,0.01,0.0,WeatherDisplay:10.37,2013-07-03 03:07:00,
2013-07-02 23:12:00,75.9,71.1,30.12,South,186,1.2,3.5,85,0.00,BKN,,0.01,0.0,WeatherDisplay:10.37,2013-07-03 03:12:00,
2013-07-02 23:17:00,75.9,71.1,30.12,SSW,194,6.3,9.0,85,0.00,BKN,,0.01,0.0,WeatherDisplay:10.37,2013-07-03 03:17:00,
2013-07-02 23:21:00,75.9,71.1,30.12,SSW,202,4.3,11.5,85,0.00,BKN,,0.01,0.0,WeatherDisplay:10.37,2013-07-03 03:21:00,
2013-07-02 23:26:00,75.8,71.0,30.12,SSW,196,1.8,5.8,85,0.00,BKN,,0.01,0.0,WeatherDisplay:10.37,2013-07-03 03:26:00,
2013-07-02 23:31:00,75.8,71.0,30.12,SSW,194,2.6,8.0,85,0.00,BKN,,0.01,0.0,WeatherDisplay:10.37,2013-07-03 03:31:00,
2013-07-02 23:35:00,75.8,71.0,30.12,South,188,6.4,12.0,85,0.00,BKN,,0.01,0.0,WeatherDisplay:10.37,2013-07-03 03:35:00,
2013-07-02 23:39:00,75.8,71.0,30.12,SSW,196,4.8,9.2,85,0.00,BKN,,0.01,0.0,WeatherDisplay:10.37,2013-07-03 03:39:00,
2013-07-02 23:44:00,75.8,71.0,30.12,SSW,192,5.0,8.1,85,0.00,BKN,,0.01,0.0,WeatherDisplay:10.37,2013-07-03 03:44:00,
2013-07-02 23:49:00,75.7,70.9,30.12,South,177,3.0,8.1,85,0.00,BKN,,0.01,0.0,WeatherDisplay:10.37,2013-07-03 03:49:00,
2013-07-02 23:54:00,75.7,70.9,30.12,South,189,4.2,6.9,85,0.00,BKN,,0.01,0.0,WeatherDisplay:10.37,2013-07-03 03:54:00,
2013-07-02 23:59:00,75.7,70.9,30.12,SSW,201,4.7,11.5,85,0.00,BKN,,0.01,0.0,WeatherDisplay:10.37,2013-07-03 03:59:00,